Location: Exeidioux
(45.6312°N, 1.6819°E)
Time: 20:52:47
(UTC+00:00)

SL-8 Rocket - Pass Details

Date: 03 March 2021
Orbit: 957 x 991 km, 82.9° (Epoch: 13 April)

Event Time Altitude Azimuth Distance (km) Brightness Sun altitude
Rises 19:50:15 0° 193° (SSW) 3,669 7.0 -22.9°
Reaches altitude 10° 19:52:47 10° 195° (SSW) 2,721 6.3 -23.3°
Maximum altitude 19:59:00 72° 280° (W) 1,024 4.2 -24.3°
Drops below altitude 10° 20:05:13 10° 5° (N) 2,715 6.5 -25.4°
Sets 20:07:44 0° 7° (N) 3,662 7.1 -25.8°
